Date,TemperatureHighF,TemperatureAvgF,TemperatureLowF,DewpointHighF,DewpointAvgF,DewpointLowF,HumidityHigh,HumidityAvg,HumidityLow,PressureMaxIn,PressureMinIn,WindSpeedMaxMPH,WindSpeedAvgMPH,GustSpeedMaxMPH,PrecipitationSumIn
2014-1-1,36.0,29.2,21.0,29.0,16.0,7.0,78,59,45,0.00,40.00,6,2,14,0.00
2014-1-2,37.0,31.2,23.0,34.0,28.6,21.0,98,92,80,0.00,40.00,16,9,25,0.00
2014-1-3,23.0,14.6,6.0,20.0,5.1,-9.0,96,75,44,0.00,40.00,13,5,22,0.00
2014-1-4,30.0,15.1,1.0,14.0,-0.2,-99.9,74,59,27,0.00,40.00,5,0,11,0.00
2014-1-5,39.0,31.5,20.0,38.0,28.0,15.0,95,88,78,0.00,40.00,7,1,14,0.00
2014-1-6,54.0,36.4,21.0,54.0,25.1,3.0,99,66,48,0.00,40.00,13,5,22,0.00
2014-1-7,16.0,7.4,3.0,-5.0,-13.7,-19.0,49,41,33,0.00,40.00,12,5,29,0.00
2014-1-8,23.0,14.8,8.0,3.0,-4.9,-9.0,55,45,33,0.00,40.00,8,3,16,0.00
2014-1-9,30.0,22.8,19.0,18.0,9.4,3.0,75,60,37,0.00,40.00,6,0,10,0.00
2014-1-10,38.0,30.7,23.0,38.0,26.7,16.0,98,87,74,0.00,40.00,5,0,5,0.15
2014-1-11,56.0,48.6,43.0,55.0,42.1,-99.9,99,92,98,0.00,40.00,7,4,20,0.04
2014-1-12,48.0,41.2,32.0,44.0,28.8,26.0,83,62,46,0.00,40.00,10,3,22,0.01
2014-1-13,48.0,38.3,29.0,39.0,31.8,26.0,91,79,69,0.00,40.00,8,1,15,0.00
2014-1-14,49.0,45.3,41.0,48.0,41.5,39.0,98,87,69,0.00,40.00,4,1,14,0.21
2014-1-15,43.0,38.4,35.0,41.0,37.3,35.0,98,96,84,0.00,40.00,4,0,9,0.01
2014-1-16,38.0,37.2,36.0,38.0,34.4,32.0,99,90,80,0.00,40.00,1,0,9,0.01
2014-1-17,47.0,40.8,36.0,33.0,31.2,30.0,82,69,55,0.00,40.00,6,2,14,0.00
2014-1-18,42.0,37.8,35.0,38.0,35.0,31.0,96,89,80,0.00,40.00,5,2,16,0.01
2014-1-21,16.0,16.0,16.0,13.0,13.0,13.0,94,94,94,0.00,40.00,11,11,0,0.00
2014-1-22,14.0,9.9,7.0,-8.0,-8.9,-9.0,52,46,37,0.00,40.00,4,1,11,0.00
2014-1-23,21.0,11.8,5.0,0.0,-4.4,-10.0,75,53,40,0.00,40.00,9,1,17,0.00
2014-1-24,19.0,11.7,4.0,3.0,-3.2,-7.0,90,59,34,0.00,40.00,11,2,16,0.00
2014-1-25,25.0,22.0,22.0,22.0,12.9,-99.9,95,82,72,0.00,40.00,7,4,20,0.00
2014-1-26,31.0,23.1,16.0,21.0,5.5,-7.0,80,50,33,0.00,40.00,13,3,21,0.00
2014-1-27,47.0,36.0,22.0,28.0,18.3,-4.0,75,50,30,0.00,40.00,8,4,22,0.00
2014-1-28,21.0,15.8,12.0,0.0,-5.5,-10.0,60,41,31,0.00,40.00,6,2,13,0.00
2014-1-29,21.0,14.3,11.0,7.0,-0.6,-9.0,91,61,28,0.00,40.00,9,2,17,0.01
2014-1-30,27.0,15.7,5.0,9.0,0.5,-6.0,85,57,30,0.00,40.00,3,0,12,0.01
2014-1-31,45.0,29.7,15.0,20.0,14.1,7.0,75,56,29,0.00,40.00,6,1,12,0.00
2014-2-1,43.0,34.5,29.0,34.0,22.8,-99.9,97,67,47,0.00,40.00,6,1,11,0.00
2014-2-2,56.0,43.0,30.0,38.0,34.3,30.0,99,75,40,0.00,40.00,4,0,9,0.01
2014-2-3,42.0,33.3,29.0,36.0,31.3,28.0,99,94,70,0.00,40.00,7,3,13,0.42
2014-2-4,39.0,29.1,21.0,28.0,24.0,18.0,95,84,59,0.00,40.00,5,1,9,0.14
2014-2-5,35.0,33.4,31.0,34.0,32.0,30.0,97,95,83,0.00,40.00,26,6,29,1.12
2014-2-6,32.0,25.7,22.0,25.0,15.3,11.0,76,67,51,0.00,40.00,5,2,17,0.00
2014-2-7,35.0,27.5,22.0,16.0,13.5,11.0,75,58,41,0.00,40.00,9,2,15,0.00
2014-2-8,29.0,24.2,20.0,15.0,7.4,0.0,76,53,31,0.00,40.00,4,0,8,0.00
2014-2-9,30.0,24.4,19.0,23.0,13.1,6.0,97,67,38,0.00,40.00,5,1,11,0.00
2014-2-10,29.0,22.5,15.0,20.0,10.2,4.0,97,66,41,0.00,40.00,10,2,16,0.10
2014-2-11,25.0,18.0,10.0,4.0,1.8,0.0,76,54,36,0.00,40.00,5,0,15,0.00
2014-2-12,30.0,18.8,7.0,23.0,8.6,-1.0,90,69,58,0.00,40.00,11,4,18,0.00
2014-2-13,34.0,31.9,25.0,33.0,31.0,23.0,99,98,97,0.00,40.00,21,12,44,0.00
2014-2-14,42.0,35.3,28.0,30.0,24.5,21.0,99,67,45,0.00,40.00,13,3,31,0.00
2014-2-15,36.0,30.2,27.0,33.0,25.2,-99.9,99,87,77,0.00,40.00,11,5,24,0.00
2014-2-16,30.0,24.1,19.0,16.0,9.4,8.0,69,56,42,0.00,40.00,5,2,17,0.03
2014-2-17,33.0,23.1,16.0,10.0,3.6,0.0,65,47,25,0.00,40.00,5,2,14,0.00
2014-2-18,45.0,34.8,22.0,39.0,27.1,11.0,99,76,52,0.00,40.00,10,2,21,0.20
2014-2-19,45.0,37.3,27.0,41.0,34.8,24.0,98,91,78,0.00,40.00,8,1,14,0.39
2014-2-20,49.0,39.9,31.0,36.0,29.2,24.0,90,67,41,0.00,40.00,8,2,13,0.00
2014-2-21,57.0,43.2,37.0,55.0,41.9,36.0,99,95,83,0.00,40.00,14,3,23,0.14
2014-2-22,58.0,44.8,35.0,35.0,23.9,-99.9,98,51,18,0.00,40.00,24,4,28,0.00
2014-2-23,57.0,45.7,39.0,37.0,30.0,27.0,69,55,35,0.00,40.00,9,2,15,0.00
2014-2-24,40.0,35.2,28.0,34.0,18.0,7.0,94,54,29,0.00,40.00,15,4,23,0.03
2014-2-25,33.0,27.2,21.0,17.0,12.4,9.0,63,55,46,0.00,40.00,8,2,25,0.00
2014-2-26,33.0,25.6,18.0,24.0,9.7,-3.0,92,55,27,0.00,40.00,8,2,17,0.01
2014-2-27,33.0,22.9,12.0,17.0,4.3,-13.0,76,49,26,0.00,40.00,16,4,21,0.00
2014-2-28,24.0,15.5,8.0,4.0,-7.1,-20.0,69,40,25,0.00,40.00,6,1,21,0.00
2014-3-1,37.0,26.0,13.0,28.0,14.1,-99.9,83,67,42,0.00,40.00,6,1,14,0.00
2014-3-2,40.0,34.0,29.0,32.0,27.4,21.0,96,78,55,0.00,40.00,3,0,9,0.04
2014-3-3,32.0,20.1,13.0,29.0,10.2,-2.0,95,71,43,0.00,40.00,5,2,13,0.00
2014-3-4,28.0,18.8,10.0,15.0,4.1,-4.0,78,57,43,0.00,40.00,5,1,9,0.08
2014-3-5,36.0,28.1,17.0,19.0,12.5,7.0,84,55,30,0.00,40.00,11,4,19,0.00
2014-3-6,29.0,24.0,19.0,19.0,11.3,6.0,69,61,51,0.00,40.00,11,7,19,0.00
2014-3-7,34.0,32.0,29.0,31.0,26.7,20.0,97,82,69,0.00,40.00,16,8,21,0.01
2014-3-8,58.0,43.0,31.0,34.0,31.1,29.0,94,67,33,0.00,40.00,5,2,18,0.00
2014-3-9,45.0,40.0,36.0,33.0,21.0,12.0,81,49,26,0.00,40.00,6,2,18,0.00
2014-3-10,52.0,42.0,35.0,33.0,23.4,16.0,64,47,37,0.00,40.00,10,3,18,0.00
2014-3-11,67.0,51.5,41.0,36.0,31.7,28.0,69,49,24,0.00,40.00,7,2,17,0.00
2014-3-12,57.0,49.7,41.0,51.0,42.9,36.0,96,78,61,0.00,40.00,14,4,21,0.22
2014-3-13,36.0,24.4,18.0,32.0,3.3,-5.0,84,44,24,0.00,40.00,16,7,29,0.00
2014-3-14,43.0,30.8,17.0,27.0,11.4,-7.0,63,46,26,0.00,40.00,12,4,21,0.00
2014-3-15,61.0,50.6,42.0,29.0,24.0,-99.9,54,38,25,0.00,40.00,11,6,30,0.00
2014-3-16,45.0,36.5,32.0,22.0,10.9,5.0,51,35,22,0.00,40.00,6,2,15,0.00
2014-3-17,32.0,26.0,22.0,20.0,11.3,-99.9,96,60,38,0.00,40.00,13,7,21,0.00
2014-3-18,36.0,33.2,30.0,27.0,21.0,13.0,74,61,41,0.00,40.00,18,10,26,0.00
2014-3-19,48.0,38.9,34.0,47.0,34.1,27.0,97,83,74,0.00,40.00,14,8,23,0.19
2014-3-20,54.0,46.3,41.0,46.0,31.0,-99.9,98,63,31,0.00,40.00,14,4,24,0.00
2014-3-21,52.0,41.6,33.0,23.0,18.8,-99.9,62,43,27,0.00,40.00,11,3,21,0.00
2014-3-22,63.0,47.5,34.0,39.0,27.6,-99.9,81,51,24,0.00,40.00,12,3,25,0.00
2014-3-23,45.0,38.9,30.0,28.0,18.8,5.0,61,45,29,0.00,40.00,5,1,14,0.00
2014-3-24,34.0,26.8,19.0,7.0,2.5,0.0,48,36,26,0.00,40.00,11,3,16,0.00
2014-3-25,38.0,28.5,18.0,28.0,14.6,4.0,98,60,33,0.00,40.00,11,4,21,0.00
2014-3-26,35.0,29.7,25.0,27.0,14.2,2.0,98,60,27,0.00,40.00,13,5,22,0.11
2014-3-27,40.0,29.7,20.0,22.0,10.0,2.0,61,45,27,0.00,40.00,10,4,16,0.00
2014-3-28,62.0,51.4,34.0,48.0,40.5,22.0,74,67,60,0.00,40.00,16,5,25,0.00
2014-3-29,57.0,45.5,41.0,48.0,41.4,-99.9,98,89,70,0.00,40.00,11,6,23,1.86
2014-3-30,53.0,45.5,40.0,52.0,44.8,38.0,99,97,94,0.00,40.00,19,5,25,0.29
2014-3-31,54.0,42.9,34.0,38.0,33.9,31.0,96,73,44,0.00,40.00,9,4,23,0.18
2014-4-1,51.0,41.2,34.0,35.0,27.8,-99.9,80,62,41,0.00,40.00,8,3,15,0.00
2014-4-2,52.0,43.6,38.0,44.0,39.2,35.0,94,85,74,0.00,40.00,7,1,11,0.02
2014-4-3,54.0,47.2,40.0,41.0,35.9,29.0,96,68,40,0.00,40.00,8,2,12,0.07
2014-4-4,42.0,40.8,40.0,40.0,39.0,38.0,96,94,89,0.00,40.00,14,8,21,0.13
2014-4-5,54.0,45.8,40.0,44.0,32.5,-99.9,98,68,37,0.00,40.00,11,4,22,0.01
2014-4-6,52.0,41.2,32.0,33.0,25.1,19.0,79,54,28,0.00,40.00,9,3,13,0.00
2014-4-7,44.0,38.4,31.0,41.0,34.4,30.0,96,86,69,0.00,40.00,11,3,16,0.01
2014-4-8,47.0,46.0,45.0,47.0,46.0,45.0,99,98,98,0.00,40.00,0,0,6,0.00
2014-4-9,63.0,56.6,48.0,34.0,26.6,22.0,42,32,22,0.00,40.00,11,3,17,0.00
2014-4-10,54.0,43.1,35.0,28.0,24.5,22.0,66,49,32,0.00,40.00,8,2,23,0.00
2014-4-11,73.0,65.8,58.0,49.0,45.0,37.0,73,49,31,0.00,40.00,9,4,16,0.00
2014-4-12,62.0,55.3,51.0,50.0,41.4,-99.9,89,65,40,0.00,40.00,11,2,16,0.00
2014-4-13,73.0,61.8,48.0,55.0,50.7,43.0,94,68,47,0.00,40.00,11,5,24,0.03
2014-4-14,71.0,65.0,61.0,58.0,55.1,53.0,89,72,58,0.00,40.00,16,9,26,0.00
2014-4-15,64.0,56.2,36.0,60.0,54.1,34.0,97,93,86,0.00,40.00,13,8,30,0.80
2014-4-16,47.0,37.8,29.0,32.0,21.2,15.0,96,55,30,0.00,40.00,16,4,20,0.15
2014-4-17,41.0,39.4,38.0,31.0,28.0,21.0,75,64,47,0.00,40.00,14,8,23,0.00
2014-4-18,43.0,39.2,37.0,35.0,30.9,29.0,84,72,62,0.00,40.00,12,5,20,0.00
2014-4-19,63.0,44.8,35.0,38.0,31.2,-99.9,94,67,24,0.00,40.00,9,1,15,0.00
2014-4-20,50.0,45.4,40.0,38.0,31.9,28.0,74,60,43,0.00,40.00,12,6,22,0.00
2014-4-21,56.0,46.2,35.0,43.0,37.4,32.0,93,72,50,0.00,40.00,8,3,12,0.00
2014-4-22,66.0,56.2,43.0,52.0,46.7,41.0,93,72,55,0.00,40.00,10,2,15,0.00
2014-4-23,59.0,53.2,44.0,48.0,35.8,28.0,70,52,39,0.00,40.00,10,4,26,0.00
2014-4-24,60.0,48.5,39.0,28.0,19.0,10.0,59,34,15,0.00,40.00,6,3,24,0.00
2014-4-25,53.0,48.0,37.0,43.0,27.0,14.0,88,46,25,0.00,40.00,10,4,18,0.02
2014-4-26,66.0,50.5,46.0,47.0,43.0,-99.9,98,81,44,0.00,40.00,9,4,16,0.85
2014-4-27,59.0,50.5,42.0,44.0,35.5,31.0,97,60,38,0.00,40.00,7,2,17,0.00
2014-4-28,58.0,50.4,39.0,38.0,35.6,32.0,89,58,39,0.00,40.00,7,1,13,0.00
2014-4-29,50.0,45.1,42.0,44.0,39.6,38.0,89,81,75,0.00,40.00,20,11,31,0.03
2014-4-30,55.0,45.6,42.0,54.0,44.3,39.0,98,95,87,0.00,40.00,16,10,30,3.02
2014-5-1,73.0,62.7,55.0,63.0,58.9,55.0,98,88,61,0.00,40.00,8,3,21,0.44
2014-5-2,66.0,60.5,53.0,58.0,41.4,35.0,95,53,32,0.00,40.00,14,2,21,0.00
2014-5-3,67.0,56.1,46.0,50.0,39.5,-99.9,89,58,35,0.00,40.00,11,2,24,0.00
2014-5-4,64.0,55.4,48.0,50.0,39.2,28.0,95,59,30,0.00,40.00,13,3,31,0.01
2014-5-5,67.0,57.4,47.0,37.0,30.3,23.0,59,37,22,0.00,40.00,5,2,16,0.00
2014-5-6,62.0,54.3,46.0,44.0,35.4,24.0,89,50,33,0.00,40.00,7,2,15,0.01
2014-5-13,52.0,50.7,50.0,46.0,45.2,45.0,81,80,78,0.00,40.00,8,6,21,0.00
2014-5-14,55.0,51.4,49.0,52.0,49.4,46.0,99,92,84,0.00,40.00,9,5,16,0.00
2014-5-15,66.0,61.9,54.0,64.0,60.9,53.0,99,97,90,0.00,40.00,11,5,18,0.00
2014-5-16,64.0,62.0,59.0,63.0,61.2,59.0,98,96,93,0.00,40.00,15,6,30,1.17
2014-5-17,67.0,56.9,51.0,58.0,47.2,-99.9,99,76,39,0.00,40.00,5,0,14,0.01
2014-5-18,64.0,55.7,46.0,46.0,40.2,35.0,85,57,38,0.00,40.00,9,1,13,0.00
2014-5-19,70.0,56.2,46.0,47.0,34.0,-99.9,69,49,24,0.00,40.00,5,1,19,0.00
2014-5-20,77.0,62.8,50.0,46.0,39.7,-99.9,77,48,24,0.00,40.00,4,0,15,0.00
2014-5-21,75.0,66.6,60.0,55.0,50.9,47.0,76,58,41,0.00,40.00,4,1,14,0.00
2014-5-22,65.0,58.8,57.0,61.0,54.7,-99.9,98,90,78,0.00,40.00,6,1,11,0.28
2014-5-23,65.0,59.2,56.0,60.0,57.3,56.0,99,94,76,0.00,40.00,9,1,11,0.55
2014-5-24,65.0,57.0,52.0,56.0,51.9,-99.9,98,87,62,0.00,40.00,7,1,10,0.14
2014-5-25,76.0,64.2,50.0,56.0,53.4,48.0,98,72,38,0.00,40.00,11,2,12,0.00
2014-5-26,85.0,72.1,58.0,57.0,51.4,47.0,81,52,28,0.00,40.00,8,3,18,0.00
2014-5-27,85.0,74.8,65.0,62.0,57.8,54.0,75,56,38,0.00,40.00,6,2,20,0.01
2014-5-28,68.0,57.4,53.0,64.0,54.3,47.0,98,90,79,0.00,40.00,11,5,21,0.08
2014-5-29,57.0,53.0,51.0,48.0,45.8,43.0,83,76,60,0.00,40.00,10,4,21,0.00
2014-5-30,69.0,60.3,52.0,58.0,51.9,48.0,88,75,51,0.00,40.00,6,2,11,0.00
2014-5-31,69.0,59.5,54.0,56.0,47.9,-99.9,92,69,43,0.00,40.00,11,3,21,0.00
2014-6-1,71.0,60.0,48.0,47.0,42.2,34.0,93,57,26,0.00,40.00,9,2,12,0.00
2014-6-2,77.0,65.0,50.0,54.0,47.4,41.0,81,55,33,0.00,40.00,10,3,15,0.00
2014-6-3,82.0,70.5,59.0,67.0,58.7,49.0,88,68,50,0.00,40.00,5,2,16,0.00
2014-6-4,76.0,69.0,63.0,64.0,62.1,61.0,97,80,61,0.00,40.00,6,2,11,0.00
2014-6-5,75.0,65.2,61.0,63.0,59.8,53.0,98,84,52,0.00,40.00,7,3,14,0.46
2014-6-6,76.0,65.1,56.0,59.0,52.0,49.0,92,64,42,0.00,40.00,6,2,11,0.00
2014-6-7,77.0,66.7,57.0,58.0,50.6,-99.9,79,60,41,0.00,40.00,6,2,12,0.00
2014-6-8,82.0,70.3,58.0,60.0,56.0,52.0,90,63,35,0.00,40.00,5,2,14,0.00
2014-6-9,71.0,66.8,64.0,67.0,63.2,55.0,97,88,66,0.00,40.00,5,2,12,0.69
2014-6-10,78.0,70.4,66.0,69.0,66.8,65.0,98,89,72,0.00,40.00,7,2,13,0.00
2014-6-11,67.0,61.2,59.0,66.0,59.5,56.0,98,94,84,0.00,40.00,14,7,23,0.03
2014-6-12,70.0,63.8,59.0,66.0,62.5,58.0,99,96,86,0.00,40.00,9,4,18,0.02
2014-6-13,78.0,69.7,65.0,72.0,67.4,64.0,98,92,77,0.00,40.00,9,3,16,0.34
2014-6-14,77.0,68.1,58.0,67.0,56.7,-99.9,98,73,45,0.00,40.00,6,2,15,0.00
2014-6-15,79.0,66.5,55.0,57.0,52.5,48.0,84,63,39,0.00,40.00,6,2,16,0.00
2014-6-16,74.0,66.8,57.0,60.0,56.5,53.0,93,72,49,0.00,40.00,6,2,11,0.00
2014-6-17,87.0,79.3,69.0,72.0,68.3,63.0,88,70,57,0.00,40.00,5,3,13,0.00
2014-6-18,91.0,81.9,73.0,68.0,64.5,58.0,80,58,34,0.00,40.00,11,4,18,0.00
2014-6-19,75.0,70.0,65.0,69.0,65.9,63.0,98,87,70,0.00,40.00,5,1,13,0.28
2014-6-20,79.0,69.8,60.0,63.0,52.2,44.0,98,58,28,0.00,40.00,7,2,12,0.00
2014-6-21,69.0,65.0,62.0,60.0,52.3,-99.9,94,66,55,0.00,40.00,11,4,19,0.00
2014-6-22,73.0,66.2,59.0,62.0,57.2,51.0,98,75,46,0.00,40.00,7,2,12,0.00
2014-6-23,78.0,67.7,56.0,63.0,57.4,53.0,98,73,44,0.00,40.00,8,2,15,0.00
2014-6-24,78.0,70.2,60.0,64.0,60.1,57.0,93,72,52,0.00,40.00,11,4,18,0.00
2014-6-25,82.0,74.7,66.0,71.0,68.9,62.0,96,83,70,0.00,40.00,11,4,22,0.00
2014-6-26,86.0,76.7,67.0,71.0,66.9,62.0,97,74,46,0.00,40.00,4,1,11,0.08
2014-6-27,77.0,70.4,65.0,66.0,59.1,51.0,95,69,41,0.00,40.00,9,5,17,0.00
2014-6-28,81.0,67.2,57.0,60.0,53.0,-99.9,97,67,40,0.00,40.00,6,2,12,0.00
2014-6-29,77.0,69.9,57.0,62.0,56.9,53.0,96,66,45,0.00,40.00,7,3,15,0.00
2014-6-30,81.0,72.5,64.0,67.0,65.0,59.0,98,78,50,0.00,40.00,12,4,17,0.00
2014-7-1,86.0,76.9,69.0,72.0,68.1,65.0,95,76,62,0.00,40.00,19,5,21,0.00
2014-7-2,88.0,80.3,72.0,74.0,70.6,65.0,96,73,58,0.00,40.00,16,5,22,0.01
2014-7-3,89.0,77.9,70.0,75.0,71.2,65.0,97,82,57,0.00,40.00,10,4,21,0.10
2014-7-4,72.0,68.5,65.0,70.0,64.0,50.0,97,87,56,0.00,40.00,6,2,14,0.83
2014-7-5,81.0,68.8,60.0,53.0,45.9,-99.9,68,48,30,0.00,40.00,10,3,14,0.00
2014-7-6,85.0,71.9,60.0,60.0,55.0,52.0,82,58,32,0.00,40.00,8,3,18,0.00
2014-7-7,92.0,78.8,69.0,65.0,61.9,57.0,77,59,32,0.00,40.00,13,5,30,0.00
2014-7-8,94.0,80.9,68.0,71.0,66.9,60.0,89,65,33,0.00,40.00,9,4,28,0.06
2014-7-9,85.0,76.8,69.0,72.0,67.3,63.0,93,74,48,0.00,40.00,8,3,16,0.00
2014-7-10,77.0,72.3,68.0,70.0,64.0,59.0,92,76,53,0.00,40.00,9,3,16,0.00
2014-7-11,80.0,72.0,66.0,67.0,63.0,55.0,97,76,45,0.00,40.00,7,3,15,0.00
2014-7-12,80.0,70.1,63.0,68.0,63.7,58.0,98,79,49,0.00,40.00,9,3,16,0.00
2014-7-13,81.0,74.9,69.0,72.0,69.1,67.0,93,83,70,0.00,40.00,10,5,20,0.03
2014-7-14,84.0,76.1,70.0,73.0,70.7,68.0,98,84,69,0.00,40.00,6,2,37,2.00
2014-7-15,86.0,74.3,68.0,75.0,71.5,68.0,98,91,67,0.00,40.00,5,2,16,3.05
2014-7-16,82.0,71.9,67.0,70.0,64.1,56.0,98,79,43,0.00,40.00,5,1,8,0.15
2014-7-17,78.0,69.9,61.0,62.0,57.0,47.0,92,67,34,0.00,40.00,9,2,12,0.00
2014-7-18,79.0,70.3,60.0,60.0,54.2,48.0,86,60,34,0.00,40.00,6,2,11,0.00
2014-7-19,74.0,68.6,62.0,65.0,60.3,57.0,88,75,59,0.00,40.00,8,3,12,0.00
2014-7-20,72.0,68.4,63.0,65.0,63.0,61.0,95,83,72,0.00,40.00,12,5,18,0.00
2014-7-21,79.0,70.0,60.0,66.0,62.3,59.0,98,79,56,0.00,40.00,6,2,11,0.00
2014-7-22,83.0,74.1,62.0,68.0,63.1,60.0,94,70,54,0.00,40.00,8,3,17,0.00
2014-7-23,85.0,77.0,68.0,73.0,69.3,65.0,95,78,67,0.00,40.00,10,3,17,0.00
2014-7-24,78.0,73.3,69.0,69.0,64.6,58.0,89,75,55,0.00,40.00,4,1,10,0.00
2014-7-25,79.0,70.9,61.0,64.0,57.4,53.0,83,63,45,0.00,40.00,5,3,13,0.00
2014-7-26,78.0,70.3,64.0,67.0,62.9,61.0,95,77,64,0.00,40.00,11,2,16,0.00
2014-7-27,87.0,75.9,69.0,74.0,69.4,66.0,96,82,52,0.00,40.00,5,2,13,0.09
2014-7-28,82.0,73.9,66.0,71.0,65.7,58.0,97,78,48,0.00,40.00,10,4,20,0.68
2014-7-29,75.0,67.5,59.0,58.0,55.1,51.0,89,67,43,0.00,40.00,5,2,16,0.00
2014-7-30,77.0,67.9,59.0,60.0,54.8,46.0,89,65,33,0.00,40.00,4,1,11,0.00
2014-7-31,80.0,68.1,59.0,66.0,57.3,56.0,94,73,47,0.00,40.00,11,3,14,0.00
2014-8-1,83.0,73.0,69.0,71.0,67.6,66.0,94,84,63,0.00,40.00,7,2,15,0.06
2014-8-2,70.0,66.9,64.0,68.0,64.6,63.0,98,93,85,0.00,40.00,11,4,21,0.95
2014-8-3,73.0,68.0,65.0,66.0,64.3,63.0,98,88,71,0.00,40.00,8,2,13,0.17
2014-8-4,79.0,71.9,66.0,70.0,67.6,65.0,98,87,70,0.00,40.00,7,2,13,0.00
2014-8-5,84.0,74.8,66.0,68.0,65.5,62.0,97,75,52,0.00,40.00,6,2,13,0.00
2014-8-6,79.0,72.1,65.0,68.0,64.5,62.0,92,78,59,0.00,40.00,5,2,11,0.00
2014-8-7,82.0,71.5,61.0,64.0,56.0,50.0,94,61,38,0.00,40.00,5,1,11,0.00
2014-8-8,81.0,69.0,59.0,61.0,54.9,51.0,88,63,39,0.00,40.00,7,1,12,0.00
2014-8-9,82.0,69.3,61.0,60.0,56.1,51.0,86,64,37,0.00,40.00,5,1,10,0.00
2014-8-10,82.0,71.1,61.0,64.0,59.4,53.0,94,69,38,0.00,40.00,7,1,11,0.00
2014-8-11,81.0,72.2,62.0,67.0,61.8,55.0,98,73,42,0.00,40.00,6,2,11,0.00
2014-8-12,78.0,72.9,70.0,71.0,67.0,64.0,95,82,77,0.00,40.00,11,4,19,0.54
2014-8-13,82.0,72.9,67.0,70.0,66.7,59.0,98,83,54,0.00,40.00,18,4,25,4.25
2014-8-14,76.0,67.3,59.0,61.0,54.8,48.0,95,67,40,0.00,40.00,6,2,16,0.07
2014-8-15,74.0,64.7,56.0,60.0,53.8,49.0,98,71,42,0.00,40.00,8,2,16,0.00
2014-8-16,77.0,66.8,55.0,63.0,55.9,52.0,91,70,45,0.00,40.00,9,2,14,0.00
2014-8-17,79.0,68.8,60.0,65.0,60.9,55.0,95,78,57,0.00,40.00,6,1,13,0.00
2014-8-18,68.0,61.7,57.0,57.0,55.4,55.0,92,81,67,0.00,40.00,3,1,9,0.00